Regional Weather Roundup
Issued by NWS

Home | Current Version | Previous Version | Text Only | Print | Product List | Glossary Off
Versions: 1 2 3 4 5 6 7 8 9 10 11 12 13 14 15 16 17 18 19 20 21 22 23 24 25 26 27 28 29 30 31 32 33 34 35 36 37 38 39 40 41 42 43 44 45 46 47 48 49 50

000
ASUS43 KLOT 260912
RWRIL

ILLINOIS REGIONAL WEATHER ROUNDUP
NATIONAL WEATHER SERVICE CHICAGO/ROMEOVILLE IL
400 AM CDT TUE MAY 26 2015

NOTE: "FAIR" INDICATES FEW OR NO CLOUDS BELOW 12,000 FEET WITH NO
SIGNIFICANT WEATHER AND/OR OBSTRUCTIONS TO VISIBILITY.

* THESE STATIONS ARE NOT UNDER NWS QUALITY CONTROL. THEY ALSO MAY NOT
  REPORT WEATHER SUCH AS PRECIPITATION OR FOG.

ILZ001-002-007-009-015-016-024-261000-
NORTHWEST ILLINOIS

CITY           SKY/WX    TMP DP  RH WIND       PRES   REMARKS
MOLINE         MOCLDY    69  65  86 S8        29.84F
STERLING*      PTCLDY    68  64  88 S3        29.88F
SAVANNA*       MOCLDY    68  65  89 S9        29.86F
$$

ILZ003-004-008-010-011-017-018-261000-
NORTH CENTRAL ILLINOIS

CITY           SKY/WX    TMP DP  RH WIND       PRES   REMARKS
ROCKFORD       PTCLDY    67  62  84 S7        29.91S
FREEPORT*      PTCLDY    66  64  93 S10       29.90F
ROCHELLE*      PTCLDY    66  64  94 S12       29.91F
DE KALB*       CLOUDY    64  62  95 S8        29.93F
PERU*          CLOUDY    68  65  92 S13       29.91S
$$

ILZ005-006-012>014-019>023-261000-
NORTHEAST ILLINOIS

CITY           SKY/WX    TMP DP  RH WIND       PRES   REMARKS
CHICAGO-OHARE  PTCLDY    67  64  90 S9        29.92S
CHICAGO-MIDWAY PTCLDY    69  65  86 S9        29.93S
AURORA         CLEAR     64  60  87 SE6       29.93S FOG
LANSING*       PTCLDY    65  62  89 S7        29.95F
JOLIET*        MOCLDY    68  66  94 S3        29.94S
WAUKEGAN       CLEAR     66  63  90 S8        29.91S
DUPAGE AIRPORT MOCLDY    66  64  93 S7        29.92F
KANKAKEE*      PTCLDY    66  64  95 S13       29.96R
WHEELING       CLEAR     68  64  87 S10       29.94R
MORRIS*        MOCLDY    65  64  94 S6        29.92S
ROMEOVILLE*    PTCLDY    66  63  92 S8        29.94S
NORTHERLY ISL    N/A     69  64  84 S9          N/A
$$

LMZ740>746-261000-
SOUTHERN LAKE MICHIGAN

STATION/POSITION SKY/WX   TEMP    WIND        PRES    VSBY  WAVE
                          AIR SEA DIR/SP/G                  HT/PER
                          (F)     (DEG/KT/KT) (MB)    (MI)  (FT/S)
SOUTHERN BUOY              46 38  180/ 12/ 14 1014.2S         1
HARRISON CRIB              69     190/ 17/ 19   N/A
BURNHAM HARBOR             69     200/  8/ 13   N/A
CALUMET HARBOR             68     190/  7/ 11   N/A
BURNS HARBOR               68     180/  9/ 15 1014.6F
MICHIGAN CITY              67     150/ 10/ 14   N/A
MICHIGAN CITY 6N           60 52  170/  6/  8   N/A           1
ST. JOSEPH                 61 54  190/  8/ 10   N/A           1/ 2
$$

ILZ025>027-034>036-040-047-049-050-058-095>099-261000-
WEST-CENTRAL ILLINOIS

CITY           SKY/WX    TMP DP  RH WIND       PRES   REMARKS
QUINCY         CLOUDY    70  66  87 SE10      29.82F
GALESBURG*     CLOUDY    67  65  93 SE6       29.87F
MACOMB*        CLOUDY    69  67  93 SE8       29.88S
JACKSONVILLE*  CLOUDY    72  68  87 SE12      29.87F
PITTSFIELD*    CLOUDY    71  66  86 SE7       29.85F
$$

ILZ028>032-037-038-041>044-048-051>054-059>061-261000-
CENTRAL ILLINOIS

CITY           SKY/WX    TMP DP  RH WIND       PRES   REMARKS
PONTIAC        MOCLDY    68  67  95 S13       29.94S
BLOOMINGTON    CLOUDY    68  67  96 S21       29.94F
DECATUR        CLOUDY    70  66  87 S13       29.94F
PEORIA         CLOUDY    70  66  87 S13       29.90F
LACON*         CLOUDY    68  65  89 S5        29.89F
LINCOLN*       CLOUDY    70  66  87 S9G16     29.89F
SPRINGFIELD    CLOUDY    71  66  84 S12       29.90F
TAYLORVILLE    CLOUDY    68  66  94 SE12      29.92S
$$

ILZ033-039-045-046-055>057-062-063-261000-
EAST-CENTRAL ILLINOIS

CITY           SKY/WX    TMP DP  RH WIND       PRES   REMARKS
CHAMPAIGN      CLOUDY    69  65  86 S13       29.96S
DANVILLE*      CLOUDY    67  65  92 S12       29.97R
RANTOUL*       CLOUDY    69  66  90 S15       29.97S
MATTOON        CLOUDY    68  66  93 S9        29.96F FOG
PARIS*         CLOUDY    68  66  93 S9        30.00S
$$

ILZ079-100>102-261000-
SOUTHWEST ILLINOIS

CITY           SKY/WX    TMP DP  RH WIND       PRES   REMARKS
ALTON          CLOUDY    70  70 100 SE8       29.89F
BELLEVILLE     CLOUDY    71  71  99 SE13      29.89F
CAHOKIA*       MOCLDY    73  68  84 SE10      29.87F
SPARTA*        CLOUDY    71  68  91 SE10      29.92F
$$

ILZ064>066-069>071-074>076-080>082-084>086-088>090-092>094-261000-
SOUTH-CENTRAL ILLINOIS

CITY           SKY/WX    TMP DP  RH WIND       PRES   REMARKS
CARBONDALE     CLOUDY    71  67  87 S12       29.94S
CAIRO*         CLOUDY    71  68  91 SE13G18   29.95S
EFFINGHAM*     CLOUDY    69  65  87 SE10      29.97F
MARION         CLOUDY    72  68  88 S10G18    29.96F
MT. VERNON     CLOUDY    72  64  78 S9        29.97S
CENTRALIA*     CLOUDY    71  66  84 S13G22    29.94F
SALEM*         CLOUDY    73  67  84 S9G17     29.95S
METROPOLIS*    MOCLDY    71  70  96 SE5       29.98S
$$

ILZ067-068-072-073-078-083-087-091-261000-
SOUTHEAST ILLINOIS

CITY           SKY/WX    TMP DP  RH WIND       PRES   REMARKS
LAWRENCEVILLE  CLOUDY    70  66  87 S15       30.01S
FLORA*         MOCLDY    69  66  90 S14       29.97F
FAIRFIELD*     CLOUDY    70  67  90 SE9       29.96F
HARRISBURG*    CLOUDY    71  68  90 S12       29.99F
ROBINSON*      CLOUDY    69  66  91 S10       30.01F
CARMI*         CLOUDY    70  63  78 SE13      29.99F
$$

ABBREVIATIONS USED IN REMARKS
   TC - TEMPERATURE IN CELSIUS
  WCI - WIND CHILL INDEX
   HX - HEAT INDEX
  VSB - VISIBILITY
$$




USA.gov is the U.S. government's official web portal to all federal, state and local government web resources and services.